Location: Newark
(32.9167°N, 112.9667°W)
Time: 08:24:15
(UTC+00:00)

N. Korean satellite - Pass Details

Date: 01 November 2019
Orbit: 456 x 506 km, 97.2° (Epoch: 18 November)

Event Time Altitude Azimuth Distance (km) Brightness Sun altitude
Rises 12:18:43 0° 37° (NE) 2,602 10.7 -19.6°
Reaches altitude 10° 12:22:00 10° 70° (ENE) 1,717 10.3 -18.9°
Maximum altitude 12:23:29 12° 93° (E) 1,592 10.4 -18.6°
Drops below altitude 10° 12:24:57 10° 117° (ESE) 1,714 10.4 -18.3°
Sets 12:28:13 0° 149° (SSE) 2,592 10.8 -17.6°
